Regional Weather Roundup
Issued by NWS Cleveland, OH

Home | Current Version | Previous Version | Graphics & Text | Print | Product List | Glossary On
Versions: 1 2 3 4 5 6 7 8 9 10 11 12 13 14 15 16 17 18 19 20 21 22 23 24 25 26 27 28 29 30 31 32 33 34 35 36 37 38 39 40 41 42 43 44 45 46 47 48 49 50
000
ASUS41 KCLE 171802
RWRCLE
OHIO REGIONAL WEATHER ROUNDUP
NATIONAL WEATHER SERVICE CLEVELAND, OH
200 PM EDT WED SEP 17 2014

NOTE: "FAIR" INDICATES FEW OR NO CLOUDS BELOW 12,000 FEET WITH NO
SIGNIFICANT WEATHER AND/OR OBSTRUCTIONS TO VISIBILITY.

OHZ001>008-015>018-024>027-034-035-043-044-171900-
   NORTHWEST OHIO

CITY           SKY/WX    TMP DP  RH WIND       PRES   REMARKS
DEFIANCE       MOSUNNY   66  45  46 VRB6      30.03F
FINDLAY        SUNNY     67  44  43 W9        30.02F
TOLEDO EXPRESS MOSUNNY   66  45  46 SW12      30.02S
TOLEDO EXEC    MOSUNNY   66  44  45 W13       30.03S
LIMA           PTSUNNY   66  47  50 SW7       30.03F
$$

OHZ009>014-019>023-028>033-038-089-171900-
   NORTHEAST OHIO

CITY           SKY/WX    TMP DP  RH WIND       PRES   REMARKS
CLE-HOPKINS    PTSUNNY   63  47  55 W5        30.03F
CLE-LAKEFRONT  MOSUNNY   65  50  58 W12       30.00F
CUY CO. ARPT   PTSUNNY   66  50  55 W12       30.02F
LORAIN-ELYRIA  MOSUNNY   69  48  47 SW8       30.02F
ASHTABULA      MOSUNNY   65  46  50 S6        30.02F
AKRON-CANTON   MOSUNNY   67  45  45 NW8       30.02F
WOOSTER        PTSUNNY   68  46  45 NW3       30.02F
MANSFIELD      MOSUNNY   65  45  48 SW8       30.02F
YOUNGSTOWN     PTSUNNY   65  45  48 VRB5      30.01F
$$

OHZ042-051>053-060>062-070>072-077>081-171900-
  SOUTHWEST OHIO

CITY           SKY/WX    TMP DP  RH WIND       PRES   REMARKS
CINC-COVINGTON PTSUNNY   64  49  57 CALM      30.05S
CINC-LUNKEN    CLOUDY    65  50  58 CALM      30.05F
HAMILTON       CLOUDY    64  50  60 VRB3      30.06S
DAYTON         PTSUNNY   63  48  58 W5        30.06S
WRIGHT-PAT AFB PTSUNNY   65  48  55 SW7       30.05S
DAYTON GENERAL PTSUNNY   62  48  60 NW6       30.05S
WILMINGTON     CLOUDY    64  47  53 W5        30.04F
$$

OHZ036-037-039>041-045>050-054>059-063>069-073>076-082>088-171900-
  CENTRAL AND SOUTHEAST OHIO

CITY           SKY/WX    TMP DP  RH WIND       PRES   REMARKS
COLUMBUS       MOSUNNY   67  46  47 SW3       30.02F
OSU AIRPORT    CLOUDY    66  48  52 VRB5      30.03S
BOLTON FIELD   PTSUNNY   64  50  59 CALM      30.04S
RICKENBACK AFB CLOUDY    64  49  57 N6        30.02F
NEWARK         PTSUNNY   67  49  52 W6        30.02S
MARION         PTSUNNY   65  44  46 CALM      30.03F
LANCASTER      CLOUDY    66  51  58 W6        30.02F
ZANESVILLE     PTSUNNY   69  48  47 W7        30.01F
NEW PHILLY     PTSUNNY   68  47  46 VRB5      30.02F
$$


USA.gov is the U.S. government's official web portal to all federal, state and local government web resources and services.